Paducah, KY

5:06 AM CDT on September 20, 2017 (GMT -0500)
Barkley Regional

Weather History for KPAH - March, 2012

Change the Weather History Date:

Friday, March 16, 2012

  Actual Average Record
Temperature  
Mean Temperature 65 °F 48 °F  
Max Temperature 75 °F 59 °F 82 °F (1995)
Min Temperature 55 °F 38 °F 19 °F (1988)
Degree Days  
Heating Degree Days 0 17  
Month to date heating degree days 168 306  
Since 1 July heating degree days 2971 3602  
Cooling Degree Days 0 0  
Month to date cooling degree days 14 0  
Year to date cooling degree days 14 0  
Growing Degree Days 14 (Base 50)    
Moisture  
Dew Point 58 °F    
Average Humidity 82    
Maximum Humidity 100    
Minimum Humidity 64    
Precipitation  
Precipitation 0.48 in 0.12 in 1.56 in (2000)
Month to date precipitation 2.90 1.92  
Year to date precipitation 8.64 9.51  
Snow  
Snow 0.00 in 0.00 in 2.00 in (1970)
Month to date snowfall T 0.5  
Since 1 July snowfall 0.7 9.0  
Snow Depth 0.00 in    
Sea Level Pressure  
Sea Level Pressure 30.09 in    
Wind  
Wind Speed 6 mph (SW)    
Max Wind Speed 16 mph    
Max Gust Speed 20 mph    
Visibility 9 miles    
Events Rain , Thunderstorm    
T = Trace of Precipitation, MM = Missing Value Source: NWS Daily Summary

Daily Weather History Graph

Daily Weather History Graph

Search for Another Location

Airport or City:

Trip Planner

Search our weather history database for the weather conditions in past years. The results will help you decide how hot, cold, wet, or windy it might be!

Date:

Astronomy

Mar. 16, 2012 Rise Set
Actual Time 7:03 AM CDT 7:03 PM CDT
Civil Twilight 6:37 AM CDT 7:29 PM CDT
Nautical Twilight 6:07 AM CDT 7:59 PM CDT
Astronomical Twilight 5:37 AM CDT 8:30 PM CDT
Moon 3:14 AM CDT (3/16) 1:31 PM CDT (3/16)
Length of Visible Light 12h 51m
Length of Day
11h 59m
Waning Crescent, 32% of the Moon is Illuminated
Mar 16
Waning Crescent
Mar 22
New
Mar 30
First Quarter
Apr 6
Full
Apr 13
Last Quarter

Hourly Weather History & Observations

Time (CDT) Temp. Dew Point Humidity Pressure Visibility Wind Dir Wind Speed Gust Speed Precip Events Conditions
12:33 AM 60.8 °F 55.4 °F 82% 30.14 in 9.0 mi West 6.9 mph - 0.01 in Rain , Thunderstorm Light Rain
12:53 AM 60.1 °F 57.0 °F 90% 30.11 in 9.0 mi Calm Calm - 0.02 in Rain Light Rain
1:01 AM 60.8 °F 57.2 °F 88% 30.12 in 10.0 mi SSE 4.6 mph - 0.01 in Rain , Thunderstorm Light Rain
1:27 AM 59.0 °F 57.2 °F 94% 30.10 in 10.0 mi SE 4.6 mph - 0.01 in Rain Light Rain
1:53 AM 59.0 °F 57.0 °F 93% 30.12 in 9.0 mi SSW 4.6 mph - 0.02 in Rain Light Rain
2:03 AM 59.0 °F 57.2 °F 94% 30.11 in 5.0 mi NW 4.6 mph - 0.02 in Rain , Thunderstorm Rain
2:32 AM 60.8 °F 57.2 °F 88% 30.10 in 7.0 mi West 10.4 mph - 0.10 in Rain Rain
2:53 AM 60.1 °F 57.0 °F 90% 30.11 in 7.0 mi SSW 9.2 mph - 0.16 in Rain Light Rain
3:02 AM 60.8 °F 57.2 °F 88% 30.11 in 9.0 mi SW 9.2 mph - 0.01 in Rain , Thunderstorm Light Rain
3:17 AM 59.0 °F 57.2 °F 94% 30.11 in 5.0 mi WSW 8.1 mph - 0.05 in Rain Rain
3:53 AM 59.0 °F 57.0 °F 93% 30.10 in 4.0 mi SW 5.8 mph - 0.22 in Rain Rain
4:24 AM 59.0 °F 57.2 °F 94% 30.09 in 8.0 mi SSW 8.1 mph - 0.07 in Rain , Thunderstorm Light Rain
4:39 AM 59.0 °F 57.2 °F 94% 30.08 in 8.0 mi South 4.6 mph - 0.08 in Rain Light Rain
4:53 AM 59.0 °F 57.0 °F 93% 30.04 in 10.0 mi SSE 13.8 mph 19.6 mph 0.09 in Rain Light Rain
5:53 AM 60.1 °F 57.0 °F 90% 30.05 in 10.0 mi South 10.4 mph - 0.00 in   Clear
6:53 AM 57.9 °F 55.9 °F 93% 30.09 in 10.0 mi North 5.8 mph - N/A   Partly Cloudy
7:53 AM 55.9 °F 55.0 °F 97% 30.10 in 6.0 mi Calm Calm - N/A   Clear
8:53 AM 62.1 °F 57.9 °F 86% 30.09 in 10.0 mi Calm Calm - N/A   Clear
9:53 AM 64.9 °F 59.0 °F 81% 30.12 in 10.0 mi WSW 4.6 mph - N/A   Clear
10:53 AM 68.0 °F 60.8 °F 78% 30.13 in 10.0 mi WSW 10.4 mph - N/A   Clear
11:53 AM 71.6 °F 60.8 °F 69% 30.13 in 10.0 mi West 13.8 mph - N/A   Partly Cloudy
12:53 PM 71.1 °F 61.0 °F 70% 30.12 in 10.0 mi West 9.2 mph - N/A   Partly Cloudy
1:53 PM 73.0 °F 61.0 °F 66% 30.09 in 10.0 mi West 11.5 mph - N/A   Partly Cloudy
2:53 PM 73.0 °F 61.0 °F 66% 30.08 in 10.0 mi West 11.5 mph - N/A   Partly Cloudy
3:53 PM 73.9 °F 62.1 °F 66% 30.07 in 10.0 mi West 11.5 mph - N/A   Partly Cloudy
4:53 PM 73.9 °F 62.1 °F 66% 30.06 in 10.0 mi West 9.2 mph - N/A   Clear
5:53 PM 71.1 °F 60.1 °F 68% 30.06 in 10.0 mi SW 6.9 mph - N/A   Clear
6:53 PM 70.0 °F 60.1 °F 71% 30.06 in 10.0 mi Calm Calm - N/A   Clear
7:53 PM 66.0 °F 59.0 °F 78% 30.08 in 10.0 mi Calm Calm - N/A   Clear
8:53 PM 64.0 °F 59.0 °F 84% 30.09 in 10.0 mi Calm Calm - N/A   Clear
9:53 PM 63.0 °F 59.0 °F 87% 30.09 in 10.0 mi Calm Calm - N/A   Clear
10:53 PM 62.1 °F 59.0 °F 90% 30.09 in 10.0 mi SSE 3.5 mph - N/A   Clear
11:53 PM 62.1 °F 59.0 °F 90% 30.09 in 10.0 mi SSE 3.5 mph - N/A   Clear